TimeEST,TemperatureF,Dew PointF,Humidity,Sea Level PressureIn,VisibilityMPH,Wind Direction,Wind SpeedMPH,Gust SpeedMPH,PrecipitationIn,Events,Conditions,WindDirDegrees,DateUTC
12:03 AM,39.2,37.4,93,29.65,3.0,NNE,28.8,48.3,N/A,,Overcast,20,2012-11-08 05:03:00
12:11 AM,39.2,37.4,93,29.64,3.0,NNE,34.5,55.2,0.00,,Overcast,20,2012-11-08 05:11:00
12:22 AM,39.2,37.4,93,29.64,2.5,NNE,31.1,49.5,0.02,Rain,Rain,30,2012-11-08 05:22:00
12:48 AM,39.2,35.6,87,29.63,3.0,NNE,32.2,43.7,0.07,Rain,Rain,20,2012-11-08 05:48:00
12:52 AM,39.9,36.0,86,29.63,3.0,NNE,31.1,43.7,0.07,Rain,Rain,20,2012-11-08 05:52:00
1:05 AM,39.2,35.6,87,29.62,3.0,NNE,32.2,49.5,0.01,,Overcast,20,2012-11-08 06:05:00
1:11 AM,39.2,35.6,87,29.61,2.5,NNE,32.2,46.0,0.01,,Overcast,20,2012-11-08 06:11:00
1:27 AM,39.2,35.6,87,29.61,2.5,NNE,26.5,47.2,0.02,,Overcast,20,2012-11-08 06:27:00
1:45 AM,39.2,35.6,87,29.61,1.5,NNE,26.5,52.9,0.05,,Overcast,20,2012-11-08 06:45:00
1:52 AM,39.0,36.0,89,29.61,1.8,NNE,28.8,48.3,0.06,,Overcast,20,2012-11-08 06:52:00
2:02 AM,39.2,37.4,93,29.60,2.0,NNE,27.6,39.1,N/A,,Overcast,20,2012-11-08 07:02:00
2:33 AM,39.2,37.4,93,29.59,1.8,North,26.5,40.3,0.03,,Overcast,10,2012-11-08 07:33:00
2:49 AM,41.0,37.4,87,29.58,2.0,NNE,29.9,44.9,0.04,,Overcast,20,2012-11-08 07:49:00
2:52 AM,41.0,37.9,89,29.58,2.0,NNE,31.1,47.2,0.05,,Overcast,20,2012-11-08 07:52:00
3:22 AM,41.0,37.4,87,29.57,1.8,NNE,31.1,44.9,0.04,Rain,Light Rain,20,2012-11-08 08:22:00
3:31 AM,41.0,37.4,87,29.56,2.0,NNE,36.8,56.4,0.06,,Overcast,20,2012-11-08 08:31:00
3:44 AM,42.8,37.4,81,29.56,3.0,NNE,27.6,49.5,0.06,,Overcast,20,2012-11-08 08:44:00
3:46 AM,42.8,37.4,81,29.56,2.5,NNE,29.9,49.5,0.06,,Overcast,20,2012-11-08 08:46:00
3:52 AM,42.1,37.9,85,29.57,2.0,NNE,31.1,43.7,0.07,,Overcast,20,2012-11-08 08:52:00
4:45 AM,42.8,37.4,81,29.53,3.0,NNE,32.2,47.2,0.10,,Overcast,20,2012-11-08 09:45:00
4:52 AM,42.1,37.9,85,29.54,4.0,NNE,35.7,46.0,0.10,,Overcast,20,2012-11-08 09:52:00
5:22 AM,42.8,39.2,87,29.52,2.5,NNE,27.6,44.9,0.05,Rain,Light Rain,20,2012-11-08 10:22:00
5:29 AM,42.8,39.2,87,29.53,2.5,NNE,29.9,47.2,0.07,Rain,Heavy Rain,20,2012-11-08 10:29:00
5:52 AM,42.1,39.0,89,29.52,2.0,North,31.1,46.0,0.09,,Overcast,10,2012-11-08 10:52:00
6:23 AM,42.8,39.2,87,29.52,3.0,NNE,35.7,46.0,0.04,Rain,Rain,20,2012-11-08 11:23:00
6:37 AM,42.8,39.2,87,29.52,2.5,North,29.9,47.2,0.12,Rain,Heavy Rain,10,2012-11-08 11:37:00
6:52 AM,43.0,39.9,89,29.52,3.0,NNE,35.7,44.9,0.20,Rain,Heavy Rain,20,2012-11-08 11:52:00
7:01 AM,42.8,39.2,87,29.52,1.8,NNE,31.1,44.9,0.06,Rain,Heavy Rain,20,2012-11-08 12:01:00
7:13 AM,42.8,39.2,87,29.53,1.2,NNE,36.8,51.8,0.15,Rain,Heavy Rain,20,2012-11-08 12:13:00
7:52 AM,43.0,39.9,89,29.52,2.0,North,27.6,47.2,0.22,,Overcast,360,2012-11-08 12:52:00
8:08 AM,42.8,39.2,87,29.51,1.2,North,27.6,44.9,0.03,,Overcast,10,2012-11-08 13:08:00
8:41 AM,44.6,39.2,81,29.49,2.0,North,25.3,48.3,0.07,,Overcast,10,2012-11-08 13:41:00
8:49 AM,44.6,39.2,81,29.50,1.2,North,29.9,47.2,0.07,,Overcast,10,2012-11-08 13:49:00
8:52 AM,44.1,39.9,85,29.50,1.2,North,32.2,47.2,0.08,,Overcast,10,2012-11-08 13:52:00
9:08 AM,44.6,39.2,81,29.50,1.0,North,28.8,48.3,0.02,,Overcast,10,2012-11-08 14:08:00
9:18 AM,44.6,41.0,87,29.50,0.8,North,24.2,44.9,0.05,,Overcast,10,2012-11-08 14:18:00
9:52 AM,43.0,39.9,89,29.51,1.0,North,25.3,42.6,0.13,,Overcast,10,2012-11-08 14:52:00
10:00 AM,42.8,39.2,87,29.50,1.0,North,29.9,46.0,0.02,,Overcast,10,2012-11-08 15:00:00
10:24 AM,42.8,39.2,87,29.50,0.8,North,29.9,48.3,0.06,,Overcast,10,2012-11-08 15:24:00
10:33 AM,42.8,39.2,87,29.50,1.0,North,33.4,47.2,0.07,,Overcast,10,2012-11-08 15:33:00
10:52 AM,43.0,39.9,89,29.50,1.0,North,24.2,48.3,0.09,,Overcast,10,2012-11-08 15:52:00
11:28 AM,42.8,39.2,87,29.49,1.0,North,28.8,47.2,0.04,,Overcast,10,2012-11-08 16:28:00
12:49 PM,42.8,39.2,87,29.49,1.5,North,27.6,49.5,0.05,,Overcast,360,2012-11-08 17:49:00
12:52 PM,43.0,39.0,86,29.50,1.5,North,28.8,49.5,0.05,,Overcast,360,2012-11-08 17:52:00
1:52 PM,43.0,39.9,89,29.51,1.2,North,26.5,38.0,0.04,,Overcast,360,2012-11-08 18:52:00
2:16 PM,42.8,39.2,87,29.52,1.0,North,26.5,36.8,0.02,,Overcast,360,2012-11-08 19:16:00
2:52 PM,42.1,39.0,89,29.54,1.5,North,25.3,34.5,0.04,,Overcast,360,2012-11-08 19:52:00
3:52 PM,42.1,39.9,92,29.56,1.5,North,20.7,40.3,0.01,,Overcast,350,2012-11-08 20:52:00
4:33 PM,41.0,39.2,93,29.58,2.0,North,25.3,36.8,0.01,,Overcast,350,2012-11-08 21:33:00
4:46 PM,42.8,39.2,87,29.59,4.0,North,25.3,32.2,0.02,,Overcast,350,2012-11-08 21:46:00
4:47 PM,42.1,39.9,92,29.59,4.0,North,25.3,32.2,0.02,,Overcast,360,2012-11-08 21:47:00
5:22 PM,41.0,39.2,93,29.61,3.0,North,15.0,29.9,N/A,,Overcast,350,2012-11-08 22:22:00
5:52 PM,41.0,39.9,96,29.62,5.0,North,21.9,31.1,0.01,Rain,Light Rain,350,2012-11-08 22:52:00
6:12 PM,41.0,39.2,93,29.63,2.5,North,19.6,29.9,0.00,,Overcast,350,2012-11-08 23:12:00
6:31 PM,41.0,39.2,93,29.63,4.0,NNW,20.7,34.5,0.00,Rain,Light Rain,340,2012-11-08 23:31:00
6:52 PM,41.0,39.0,93,29.65,4.0,NNW,17.3,27.6,0.00,Rain,Light Rain,340,2012-11-08 23:52:00
7:52 PM,39.9,39.0,97,29.66,3.0,NNW,16.1,24.2,0.01,,Overcast,340,2012-11-09 00:52:00
8:52 PM,39.9,37.9,93,29.68,7.0,North,12.7,28.8,0.00,Rain,Light Rain,350,2012-11-09 01:52:00
9:52 PM,39.9,37.0,89,29.69,5.0,NNW,13.8,23.0,0.00,Rain,Light Rain,330,2012-11-09 02:52:00
10:52 PM,39.0,36.0,89,29.70,6.0,NNW,12.7,27.6,0.00,,Overcast,330,2012-11-09 03:52:00
11:23 PM,39.2,35.6,87,29.71,10.0,NNW,17.3,21.9,N/A,,Overcast,330,2012-11-09 04:23:00
11:52 PM,39.0,35.1,86,29.72,10.0,NNW,15.0,20.7,N/A,,Overcast,340,2012-11-09 04:52:00